• MPC Preparation (Info)

  • MPEC 2016-X10 : 2016 WC10

    The following Minor Planet Electronic Circular may be linked-to from your own Web pages, but must not otherwise be redistributed electronically.

    A form allowing access to any MPEC is at the bottom of this page.


    Read MPEC 2016-X09 Read MPEC 2016-X11


    M.P.E.C. 2016-X10                                Issued 2016 Dec. 1, 15:38 UT
    
         The Minor Planet Electronic Circulars contain information on unusual
             minor planets and routine data on comets.  They are published
        on behalf of Division F of the International Astronomical Union by the
              Minor Planet Center, Smithsonian Astrophysical Observatory,
                              Cambridge, MA 02138, U.S.A.
    
                 Prepared using the Tamkin Foundation Computer Network
    
                                  MPC@CFA.HARVARD.EDU
                URL https://www.minorplanetcenter.net/    ISSN 1523-6714
    
                                       2016 WC10
    
    Observations:
         K16W10C* C2016 11 28.53820 05 38 04.693+02 46 14.42         20.6 wLEX010F51
         K16W10C  C2016 11 28.55090 05 38 08.296+02 47 35.65         20.9 wLEX010F51
         K16W10C  C2016 11 28.56361 05 38 11.945+02 48 56.60         20.7 wLEX010F51
         K16W10C  C2016 11 28.57634 05 38 15.661+02 50 17.45         20.7 wLEX010F51
         K16W10C  C2016 11 28.92966 05 40 38.47 +03 23 45.6          20.8 VSEX010033
         K16W10C  C2016 11 28.93204 05 40 39.14 +03 23 58.9          21.0 VSEX010033
         K16W10C  C2016 11 28.93440 05 40 39.76 +03 24 12.2          20.7 VSEX010033
         K16W10C  C2016 11 28.93677 05 40 40.44 +03 24 26.2          21.2 VSEX010033
         K16W10C  C2016 11 28.93913 05 40 41.09 +03 24 39.6          21.2 VSEX010033
         K16W10C KC2016 11 29.01520 05 41 03.78 +03 31 46.5                qEX010J95
         K16W10C KC2016 11 29.02375 05 41 06.06 +03 32 33.8          20.8 RqEX010J95
         K16W10C  C2016 11 29.02906 05 41 04.92 +03 33 03.9          19.9 VSEX010033
         K16W10C  C2016 11 29.03142 05 41 05.53 +03 33 17.2          20.9 VSEX010033
         K16W10C  C2016 11 29.03380 05 41 06.13 +03 33 30.0          20.9 VSEX010033
         K16W10C  C2016 11 29.03616 05 41 06.74 +03 33 42.7          20.8 VSEX010033
         K16W10C  C2016 11 29.03853 05 41 07.34 +03 33 55.8          21.0 VSEX010033
         K16W10C  C2016 11 30.23682 05 46 44.86 +05 07 36.7          21.9 VqEX010I52
         K16W10C  C2016 11 30.23828 05 46 45.10 +05 07 41.8                qEX010I52
         K16W10C  C2016 11 30.23867 05 46 45.26 +05 07 47.7          21.8 RoEX010926
         K16W10C  C2016 11 30.23974 05 46 45.33 +05 07 48.3          21.6 VqEX010I52
         K16W10C  C2016 11 30.24260 05 46 45.92 +05 08 03.4          21.4 RoEX010926
         K16W10C  C2016 11 30.24655 05 46 46.55 +05 08 19.1          21.5 RoEX010926
         K16W10C KC2016 11 30.32401 05 46 58.66 +05 13 20.0                oEX010291
         K16W10C KC2016 11 30.32677 05 46 59.07 +05 13 30.5                oEX010291
         K16W10C KC2016 11 30.32952 05 46 59.48 +05 13 41.0                oEX010291
    
    Observer details:
    033 Karl Schwarzschild Observatory, Tautenburg.  Observers B. Stecklum,
        C. Hoegner.  Measurer B. Stecklum.  1.34-m f/3 Schmidt + CCD.
    291 LPL/Spacewatch II.  Observer A. F. Tubbiolo.  1.8-m f/2.7 reflector + CCD.
    926 Tenagra II Observatory.  Observers M. Schwartz, P. R. Holvorcem.  Measurer
        M. Schwartz.  0.81-m f/7 Ritchey-Chretien + CCD.
    F51 Pan-STARRS 1, Haleakala.  Observers B. Gibson, T. Goggia, S. Kahale,
        A. Schultz, M. Willman.  Measurers K. Chambers, S. Chastel, L. Denneau,
        H. Flewelling, M. Huber, E. Lilly, E. Magnier, R. Wainscoat, C. Waters,
        R. Weryk.  1.8-m Ritchey-Chretien + CCD.
    I52 Steward Observatory, Mt. Lemmon Station.  Observer J. A. Johnson.
        Measurers E. J. Christensen, D. C. Fuls, A. R. Gibbs, A. D. Grauer,
        J. A. Johnson, R. A. Kowalski, S. M. Larson, G. J. Leonard, R. G. Matheny,
        R. L. Seaman, F. C. Shelly.  1.0-m reflector + CCD.
    J95 Great Shefford.  Observer P. Birtwhistle.  0.40-m f/6.0 Schmidt-Cassegrain
        + CCD.
    
    Orbital elements:
    2016 WC10                                                Earth MOID = 0.0046 AU
    Epoch 2017 Feb. 16.0 TT = JDT 2457800.5                 MPC
    M  46.37288              (2000.0)            P               Q
    n   0.41036676     Peri.  150.49150     +0.90850353     -0.41604044
    a   1.7934445      Node   234.14521     +0.37331265     +0.85013329
    e   0.4825521      Incl.    2.76771     +0.18777381     +0.32277506
    P   2.40           H   27.1           G   0.15           U   5
    Residuals in seconds of arc
    161128 F51  0.1+  0.1-    161129 J95  0.5-  0.6+    161130 926  0.2-  0.3+
    161128 F51  0.1-  0.1-    161129 J95  0.2+  0.4+    161130 I52  0.3-  0.0
    161128 F51  0.1-  0.1-    161129 033  0.1+  0.4-    161130 926  0.2-  0.4+
    161128 F51  0.2+  0.1+    161129 033  0.1+  0.1-    161130 926  0.6-  0.4+
    161128 033  0.0   0.1-    161129 033  0.2-  0.4-    161130 291  0.2+  0.0
    161128 033  0.1+  0.5-    161129 033  0.2-  0.7-    161130 291  0.3+  0.1-
    161128 033  0.4-  0.7-    161129 033  0.4-  0.6-    161130 291  0.4+  0.2-
    161128 033  0.0   0.2-    161130 I52  0.0   0.0
    161128 033  0.1+  0.3-    161130 I52  0.1-  0.7-
    
    Ephemeris:
    2016 WC10                a,e,i = 1.79, 0.48, 3                   q = 0.9280
    Date    TT    R. A. (2000) Decl.     Delta      r     Elong.  Phase     V
    2016 11 01    18 17 18.2 -15 09 25   0.1203  0.9303    55.9   118.0    27.0
    ...
    2016 11 16    18 48 05.1 -20 07 11   0.03870 0.9632    47.5   130.8    25.7
    ...
    2016 11 24    03 41 31.4 -25 40 03   0.0091450.9936   133.6    46.0    18.6
    ...
    2016 11 30    05 45 40.4 +04 53 25   0.03875 1.0213   154.2    24.8    21.2
    2016 12 01    05 49 13.1 +05 54 29   0.04415 1.0263   155.0    24.0    21.5
    2016 12 02    05 51 56.8 +06 42 50   0.04959 1.0313   155.7    23.2    21.7
    ...
    2016 12 08    06 00 01.2 +09 27 41   0.08297 1.0635   160.4    18.1    22.8
    ...
    2016 12 16    06 02 52.1 +11 13 59   0.1299  1.1107   166.2    12.2    23.6
    ...
    2016 12 31    06 03 42.3 +13 19 46   0.2299  1.2083   166.8    10.7    25.0
    
    A. U. Tomatic                (C) Copyright 2016 MPC           M.P.E.C. 2016-X10
    

    Read MPEC 2016-X09 Read MPEC 2016-X11


    MPEC number:

    Enter an MPEC number in one of the following forms:

    • 1997-B01 (the full form)
    • J97B01 (the packed version of the full form)
    • B01 (the abbreviated form)